Regional Weather Roundup
Issued by NWS

Home | Current Version | Previous Version | Text Only | Print | Product List | Glossary Off
Versions: 1 2 3 4 5 6 7 8 9 10 11 12 13 14 15 16 17 18 19 20 21 22 23 24 25 26 27 28 29 30 31 32 33 34 35 36 37 38 39 40 41 42 43 44 45 46 47 48 49 50

000
ASUS43 KMPX 250001
RWRMN
WEATHER ROUNDUP FOR MINNESOTA
NATIONAL WEATHER SERVICE TWIN CITIES/CHANHASSEN MN
700 PM CDT TUE MAY 24 2016


NOTE: "FAIR" INDICATES FEW OR NO CLOUDS BELOW 12,000 FEET WITH NO
SIGNIFICANT WEATHER AND/OR OBSTRUCTIONS TO VISIBILITY. N/A MEANS
CURRENT SKY AND/OR WEATHER CONDITIONS ARE NOT AVAILABLE.

MNZ060>063-068>070-250100-
   Twin Cities Metro

CITY           SKY/WX    TMP DP  RH WIND       PRES   REMARKS
TWIN CITIES    PTSUNNY   81  49  32 N6        29.88S
6HR MIN TEMP:  79; 6HR MAX TEMP:  86;

ST PAUL        MOSUNNY   80  49  33 N5        29.88S
CRYSTAL        CLOUDY    77  55  46 N3        29.87S
EDEN PRAIRIE   MOSUNNY   80  53  39 NE5       29.86F
6HR MIN TEMP:  78; 6HR MAX TEMP:  86;

SOUTH ST PAUL  SUNNY     82  49  31 CALM      29.87S
LAKE ELMO      HAZE      79  54  41 CALM      29.90R VSB 3/4
$$
MNZ001>005-007-008-013>017-022>024-027-028-250100-
   Northwest Minnesota

CITY           SKY/WX    TMP DP  RH WIND       PRES   REMARKS
BEMIDJI        SUNNY     77  41  27 NW12      29.88S
HALLOCK        SUNNY     77  41  27 NW9       29.86S
ROSEAU         SUNNY     75  50  41 N7        29.89R
WARROAD        SUNNY     68  57  68 NE9       29.90R
THIEF RVR FALL SUNNY     75  46  35 N6        29.89S
CROOKSTON      SUNNY     77  48  36 N5        29.87S
FOSSTON        SUNNY     79  45  29 N3        29.89F
DETROIT LAKES  SUNNY     77  50  38 N9        29.88S
MOORHEAD       SUNNY     82  41  23 NE10      29.85S
PARK RAPIDS    SUNNY     80  45  28 N7        29.87S
MAHNOMEN       FAIR      75  51  42 NE6       29.87F
$$
MNZ006-009>011-018-025>026-250100-
   North Central Minnesota

CITY           SKY/WX    TMP DP  RH WIND       PRES   REMARKS
BAUDETTE       SUNNY     74  46  36 N9        29.89R
FLAG ISLAND    SUNNY     70  48  46 NE6       29.89R
INTL FALLS     SUNNY     65  54  67 N14       29.92R
6HR MIN TEMP:  65; 6HR MAX TEMP:  82;

WASKISH        SUNNY     73  55  53 W5        29.89R
BIG FORK       SUNNY     79  41  25 W7        29.89R
CRANE LAKE     MOSUNNY   73  54  49 CALM      29.88R
ORR            SUNNY     79  36  21 W8        29.86R
COOK           MOSUNNY   79  45  29 W10       29.89R
WALKER         FAIR      75  54  48 CALM      29.88S
$$
MNZ012-019>021-037-250100-
   Northeast Minnesota

CITY           SKY/WX    TMP DP  RH WIND       PRES   REMARKS
DULUTH         MOSUNNY   60  56  86 E14       29.93R
6HR MIN TEMP:  60; 6HR MAX TEMP:  76;

ELY              N/A     68  57  68 SE13      29.91R HAZE
HIBBING        SUNNY     76  45  33 W6        29.89R
EVELETH        SUNNY     77  43  29 W5        29.91R
DULUTH HARBOR  RAIN      52  48  87 NE14      29.95S VSB 1/4
TWO HARBORS    CLOUDY    61  55  82 E10       29.93R
SILVER BAY     MOSUNNY   61  54  77 E9        29.94R
GRAND MARAIS     N/A     52  47  83 NE7       29.97R
G MARAIS ARPRT CLOUDY    61  46  59 NE10      30.00R
$$
MNZ029>031-032-039>041-046>048-054>057-064-250100-
   West Central Minnesota

CITY           SKY/WX    TMP DP  RH WIND       PRES   REMARKS
FERGUS FALLS   SUNNY     79  52  38 NE8G16    29.80S
WHEATON        SUNNY     86  46  25 SW6       29.84S
MORRIS         SUNNY     81  52  36 W3        29.83S
ALEXANDRIA     MOSUNNY   74  56  53 SE12      29.89R
ELBOW LAKE     FAIR      84  43  23 W10       29.84S
WADENA         PTSUNNY   70  57  64 E14       29.88R
GLENWOOD       SUNNY     79  54  41 SE12      29.88S
APPLETON       SUNNY     86  37  17 SW6       29.83S
BENSON         SUNNY     81  48  32 SE10      29.84S
ORTONVILLE     SUNNY     84  39  20 W5        29.83F
MADISON        SUNNY     84  43  23 SW5       29.84S
WILLMAR        FAIR      77  61  57 E13       29.88S
$$
MNZ033>034-036-042>043-049>051-058-059-250100-
   Central Minnesota

CITY           SKY/WX    TMP DP  RH WIND       PRES   REMARKS
ST CLOUD       CLOUDY    76  59  55 SE5       29.88S
6HR MIN TEMP:  75; 6HR MAX TEMP:  80;

SAUK CENTRE    FAIR      70  61  73 E10       29.89S
PAYNESVILLE    MOSUNNY   76  55  46 SE8       29.88S
AITKIN         SUNNY     79  46  31 S3        29.88R
PINE RIVER     MOSUNNY   79  57  47 E10       29.91S
BRAINERD       LGT RAIN  74  54  49 S8        29.90R
STAPLES        TSTM      63  57  82 CALM      29.89R
LONG PRAIRIE   CLOUDY    66  55  68 SE17      29.88S
LITTLE FALLS   CLOUDY    70  45  40 S14G24    29.87F
LITCHFIELD     CLOUDY    79  52  38 CALM      29.88F
BUFFALO        CLOUDY    78  56  47 SE3       29.90R
MAPLE LAKE     CLOUDY    81  58  44 CALM      29.90S
HUTCHINSON     MOSUNNY   72  62  70 E6        29.90S
$$
MNZ037-044-045-052-053-250100-
   East Central Minnesota

CITY           SKY/WX    TMP DP  RH WIND       PRES   REMARKS
PRINCETON      CLOUDY    77  63  61 S5        29.90R
MORA           CLOUDY    75  52  43 CALM      29.90S
CAMBRIDGE        N/A     79  63  57 CALM      29.88R
RUSH CITY      CLOUDY    74  64  72 CALM      29.89S
MOOSE LAKE     SUNNY     79  52  38 SW3       29.87S
HINCKLEY       FAIR      77  57  50 S5        29.89S
CLOQUET        SUNNY     64  55  72 E8        29.92R
MCGREGOR       MOSUNNY   79  50  36 NW3       29.89S
$$
MNZ071>073-080-081-089-090-097-098-250100-
   Southwest Minnesota

CITY           SKY/WX    TMP DP  RH WIND       PRES   REMARKS
MONTEVIDEO     SUNNY     82  57  42 SE17      29.86F
GRANITE FALLS  SUNNY     84  56  38 NE20      29.85S
CANBY          SUNNY     86  52  30 CALM      29.85F
REDWOOD FALLS  PTSUNNY   77  56  48 NE10G17   29.85R
OLIVIA         SUNNY     73  55  53 E10G16    29.86S
PIPESTONE      SUNNY     84  37  18 CALM      29.87S
WINDOM         SUNNY     82  54  36 CALM      29.88S
WORTHINGTON    SUNNY     80  57  45 S8        29.88
JACKSON        SUNNY     82  41  23 CALM      29.89S
SLAYTON        SUNNY     83  38  19 SW3       29.88F
$$
MNZ065>067-074>077-082>085-091>093-250100-
   South Central Minnesota

CITY           SKY/WX    TMP DP  RH WIND       PRES   REMARKS
MANKATO        SUNNY     84  45  24 SW7       29.86F
NEW ULM        SUNNY     82  52  34 S6        29.85F
ST JAMES       SUNNY     81  36  19 CALM      29.87S
FAIRMONT         N/A     82  50  32 CALM      29.88S VSB 1/2
GLENCOE        CLOUDY    63  59  88 S9G24     29.91R
OWATONNA       SUNNY     81  54  39 S9        29.89S
WASECA         SUNNY     81  54  39 S12       29.89S
ALBERT LEA     SUNNY     81  55  41 SE7       29.89F
$$
MNZ078>079-086>088-094>096-250100-
   Southeast Minnesota

CITY           SKY/WX    TMP DP  RH WIND       PRES   REMARKS
ROCHESTER      SUNNY     79  57  46 S6        29.91F
6HR MIN TEMP:  74; 6HR MAX TEMP:  80;

RED WING       CLOUDY    81  61  50 CALM      29.87S
STANTON        CLOUDY    83  51  33 E10       29.86F
DODGE CENTER   SUNNY     81  54  39 S10       29.91S
WINONA         SUNNY     81  55  41 SE3       29.90S
AUSTIN         SUNNY     77  61  57 S5        29.90F
PRESTON        SUNNY     79  55  44 SE6       29.92F
$$
ABBREVIATIONS USED IN REMARKS
   TC - TEMPERATURES IN CELSIUS
  WCI - WIND CHILL INDEX
   HX - HEAT INDEX
  VSB - VISIBILITY
$$




USA.gov is the U.S. government's official web portal to all federal, state and local government web resources and services.